Location: Linton
(52.0940°N, 0.2850°E)
Time: 16:39:17
(UTC+00:00)

Amateur Radio Satellites - All Passes

Search period start: 22 November 2017 16:09
Search period end: 23 November 2017 16:09
Location: Linton, 52.0940°N, 0.2850°E

Satellite Date Start Highest point End Downlink Frequencies (MHz)
Time Altitude Azimuth
XW-2F 22 Nov 16:09:33 16:12:31 23° 64° (ENE) 16:15:29 145.980 - 146.000
ITUPSAT 1 22 Nov 16:09:46 16:14:30 63° 290° (WNW) 16:19:12 437.325
MOZHAYETS 4 22 Nov 16:10:45 16:15:06 44° 293° (WNW) 16:19:26
CUTE-I 22 Nov 16:12:20 16:17:05 33° 61° (ENE) 16:21:52 437.470
ITAMSAT 1 22 Nov 16:12:43 16:16:18 18° 271° (W) 16:19:54 435.822/435.867
UKube-1 22 Nov 16:14:35 16:16:26 13° 308° (NW) 16:18:16 .
KKS-1 22 Nov 16:17:24 16:20:28 18° 90° (E) 16:23:30 437.445
DOVE 4 22 Nov 16:17:36 16:22:43 69° 258° (WSW) 16:28:02 437.250
CUBESAT XI-V 22 Nov 16:25:12 16:29:55 75° 103° (ESE) 16:34:38 437.345
CUTE 1.7 + AOD 2 22 Nov 16:32:33 16:34:57 15° 57° (ENE) 16:37:21 437.475
KAITUO 1B 22 Nov 16:34:48 16:38:05 32° 67° (ENE) 16:41:25 145.475/437.950
NO-84 22 Nov 16:35:41 16:39:35 84° 340° (NNW) 16:43:45 435.350 FM
STARS 22 Nov 16:38:55 16:40:47 12° 86° (E) 16:42:39 437.465
YUBILEINY 22 Nov 16:47:19 16:56:10 75° 264° (W) 17:04:57 435.215
XW-2D 22 Nov 16:52:35 16:56:18 68° 73° (ENE) 17:00:03 145.860 - 145.880
SEEDS 22 Nov 17:00:04 17:02:49 17° 58° (ENE) 17:05:34 437.485
UWE-3 22 Nov 17:00:59 17:02:30 12° 54° (NE) 17:04:01 435.000/436.395/437.385
XW-2B 22 Nov 17:07:26 17:11:11 87° 263° (W) 17:14:58 145.730 - 145.750
NUDT-PHONESAT 22 Nov 17:16:44 17:20:23 85° 75° (ENE) 17:24:04 437.300
XW-2C 22 Nov 17:33:22 17:36:58 45° 261° (W) 17:40:36 145.795 - 145.815
LilacSat-2 22 Nov 17:37:07 17:40:39 38° 262° (W) 17:44:14 437.200
AO-73 22 Nov 17:38:09 17:39:59 13° 55° (NE) 17:41:49 145.935
BEESAT 22 Nov 17:38:23 17:40:58 15° 308° (NW) 17:43:32 436.000
CUBEBUG 2 22 Nov 17:40:07 17:44:17 37° 67° (ENE) 17:48:20 437.445
XW-2F 22 Nov 17:42:58 17:46:27 38° 263° (W) 17:49:58 145.980 - 146.000
HO-68 22 Nov 17:47:13 17:54:25 83° 69° (ENE) 18:01:40 435.675
ITUPSAT 1 22 Nov 17:49:25 17:51:27 13° 310° (NW) 17:53:28 437.325
CUTE-I 22 Nov 17:51:47 17:56:59 49° 261° (W) 18:02:13 437.470
Oscar 11 22 Nov 17:52:57 17:54:54 13° 54° (NE) 17:56:52 .
KKS-1 22 Nov 17:53:01 17:57:29 67° 290° (WNW) 18:01:54 437.445
DOVE 4 22 Nov 17:59:24 18:01:24 12° 279° (W) 18:03:26 437.250
CUBESAT XI-V 22 Nov 18:03:30 18:06:47 19° 303° (WNW) 18:10:05 437.345
CUTE 1.7 + AOD 2 22 Nov 18:06:00 18:10:12 84° 258° (WSW) 18:14:27 437.475
KAITUO 1B 22 Nov 18:08:59 18:12:06 26° 266° (W) 18:15:16 145.475/437.950
RS-15 22 Nov 18:11:23 18:23:00 51° 114° (ESE) 18:34:30 29.354- 29.394
NO-84 22 Nov 18:13:14 18:17:13 56° 0° (N) 18:21:24 435.350 FM
STARS 22 Nov 18:13:22 18:17:49 88° 110° (ESE) 18:22:11 437.465
XW-2A 22 Nov 18:18:21 18:21:28 40° 70° (ENE) 18:24:37 145.665 - 145.685
ZACube-1 22 Nov 18:21:43 18:25:30 31° 65° (ENE) 18:29:14 437.345
XW-2D 22 Nov 18:29:06 18:30:55 13° 272° (W) 18:32:45 145.860 - 145.880
UWE-3 22 Nov 18:33:50 18:38:13 69° 74° (ENE) 18:42:30 435.000/436.395/437.385
SEEDS 22 Nov 18:33:51 18:38:01 70° 257° (WSW) 18:42:15 437.485
AAUSAT CUBESAT 2 22 Nov 18:36:27 18:40:32 60° 72° (ENE) 18:44:39 437.432
YUBILEINY 22 Nov 18:45:37 18:51:27 20° 288° (WNW) 18:57:17 435.215
NUDT-PHONESAT 22 Nov 18:54:33 18:54:48 10° 274° (W) 18:55:02 437.300
DELFI C3 22 Nov 18:57:09 18:58:39 12° 55° (NE) 19:00:09 145.870
FO-29 22 Nov 19:09:51 19:15:45 22° 83° (E) 19:21:25 435.910
AO-73 22 Nov 19:11:18 19:15:34 80° 74° (ENE) 19:19:46 145.935
CUBEBUG 2 22 Nov 19:16:55 19:20:57 31° 265° (W) 19:24:53 437.445
Oscar 11 22 Nov 19:26:03 19:30:20 78° 73° (ENE) 19:34:40 .
STRAND 1 22 Nov 19:29:58 19:35:04 61° 102° (ESE) 19:40:07 437.568
KKS-1 22 Nov 19:31:27 19:33:13 12° 309° (NW) 19:34:59 437.445
HO-68 22 Nov 19:37:14 19:42:59 25° 271° (W) 19:48:46 435.675
EO-88 22 Nov 19:39:32 19:41:29 14° 59° (ENE) 19:43:26 145.990 - 145.960
Max Valier Satellite 22 Nov 19:43:38 19:46:21 20° 63° (ENE) 19:49:04 145.860
CUTE 1.7 + AOD 2 22 Nov 19:45:30 19:46:44 11° 275° (W) 19:47:58 437.475
NO-84 22 Nov 19:50:41 19:54:51 86° 21° (NNE) 19:59:09 435.350 FM
STARS 22 Nov 19:50:56 19:53:33 16° 305° (NW) 19:56:08 437.465
XW-2A 22 Nov 19:52:09 19:54:22 17° 268° (W) 19:56:36 145.665 - 145.685
ZACube-1 22 Nov 19:57:51 20:01:46 34° 264° (W) 20:05:38 437.345
O/OREOS (USA 219) 22 Nov 20:00:36 20:02:19 12° 30° (NNE) 20:04:02 437.305
nSIGHT-1 22 Nov 20:04:21 20:05:51 13° 140° (SE) 20:07:22 .
UWE-3 22 Nov 20:12:21 20:15:08 16° 271° (W) 20:17:52 435.000/436.395/437.385
AAUSAT CUBESAT 2 22 Nov 20:13:37 20:16:23 17° 271° (W) 20:19:10 437.432
RS-15 22 Nov 20:22:51 20:35:14 72° 321° (NW) 20:47:23 29.354- 29.394
DELFI C3 22 Nov 20:28:44 20:32:42 80° 74° (ENE) 20:36:43 145.870
AO-73 22 Nov 20:50:12 20:52:21 14° 273° (W) 20:54:29 145.935
ISS 22 Nov 20:51:43 20:54:22 23° 147° (SSE) 20:57:00 437.550
ESTCUBE 1 22 Nov 20:53:23 20:56:03 16° 55° (NE) 20:58:42 437.505/2401.250
FO-29 22 Nov 20:53:57 21:01:55 83° 105° (ESE) 21:09:29 435.910
Oscar 11 22 Nov 21:04:43 21:07:02 14° 273° (W) 21:09:23 .
STRAND 1 22 Nov 21:09:44 21:13:55 26° 302° (WNW) 21:18:04 437.568
EO-88 22 Nov 21:11:04 21:14:40 68° 258° (WSW) 21:18:19 145.990 - 145.960
Max Valier Satellite 22 Nov 21:16:26 21:19:56 43° 261° (W) 21:23:26 145.860
NO-84 22 Nov 21:28:14 21:31:59 31° 220° (SW) 21:35:45 435.350 FM
SO-50 22 Nov 21:29:45 21:33:56 40° 122° (ESE) 21:38:10 436.795
LO-87 22 Nov 21:30:59 21:34:11 30° 67° (ENE) 21:37:23 145.935 - 145.965
nSIGHT-1 22 Nov 21:38:25 21:41:30 45° 159° (SSE) 21:44:36 .
O/OREOS (USA 219) 22 Nov 21:38:37 21:43:00 42° 53° (NE) 21:47:19 437.305
UNISAT 6 22 Nov 21:43:09 21:47:22 52° 100° (E) 21:51:31 437.425
TIGRISAT 22 Nov 21:47:05 21:51:17 52° 100° (E) 21:55:26 435.000
SPROUT 22 Nov 21:53:00 21:55:27 15° 56° (NE) 21:57:54 437.525
DELFI C3 22 Nov 22:06:15 22:07:59 13° 273° (W) 22:09:46 145.870
PRISM 22 Nov 22:14:25 22:18:22 39° 98° (E) 22:22:16 437.425
ISS 22 Nov 22:27:14 22:30:29 66° 166° (SSE) 22:33:44 437.550
ESTCUBE 1 22 Nov 22:27:43 22:32:13 90° 56° (NE) 22:36:45 437.505/2401.250
RS-15 22 Nov 22:38:17 22:50:01 46° 352° (N) 23:01:21 29.354- 29.394
FO-29 22 Nov 22:39:32 22:46:12 32° 307° (NW) 22:52:42 435.910
VELOX 1 22 Nov 22:42:01 22:45:48 28° 62° (ENE) 22:49:36 145.980
EO-79 22 Nov 22:48:57 22:51:01 13° 87° (E) 22:53:03 145.935-145.965
NANOSAT C BR1 22 Nov 22:51:20 22:53:07 12° 87° (E) 22:54:55 145.865
POLYITAN 1 22 Nov 23:04:02 23:06:59 18° 90° (E) 23:09:55 437.675
LO-87 22 Nov 23:04:33 23:07:37 25° 265° (W) 23:10:40 145.935 - 145.965
SO-50 22 Nov 23:10:06 23:14:24 43° 324° (NW) 23:18:46 436.795
PCSat 22 Nov 23:14:06 23:18:21 24° 110° (ESE) 23:22:38 145.827
nSIGHT-1 22 Nov 23:14:24 23:17:37 85° 183° (S) 23:20:51 .
O/OREOS (USA 219) 22 Nov 23:18:17 23:22:18 30° 253° (WSW) 23:26:14 437.305
UNISAT 6 22 Nov 23:20:28 23:23:47 22° 300° (WNW) 23:27:05 437.425
DX 1 22 Nov 23:23:08 23:26:20 20° 58° (ENE) 23:29:33 434.975-435.025
TIGRISAT 22 Nov 23:24:23 23:27:41 22° 300° (WNW) 23:30:58 435.000
AIST 2D 22 Nov 23:25:01 23:28:34 81° 103° (ESE) 23:32:06 435.315
SPROUT 22 Nov 23:26:27 23:30:45 87° 262° (W) 23:35:04 437.525
QB50P2 22 Nov 23:26:55 23:30:44 32° 96° (E) 23:34:30 145.880/145.840
PRISM 22 Nov 23:49:57 23:53:30 27° 297° (WNW) 23:57:02 437.425
UKube-1 23 Nov 00:01:08 00:04:49 28° 62° (ENE) 00:08:32 .
ISS 23 Nov 00:03:38 00:06:55 81° 185° (S) 00:10:12 437.550
ESTCUBE 1 23 Nov 00:07:35 00:09:42 13° 274° (W) 00:11:50 437.505/2401.250
DUCHIFAT 1 23 Nov 00:13:42 00:17:52 65° 101° (ESE) 00:22:01 145.980
VELOX 1 23 Nov 00:17:51 00:22:05 43° 261° (W) 00:26:22 145.980
50 SAT 23 Nov 00:22:55 00:26:07 64° 73° (ENE) 00:29:21 437.505
EO-79 23 Nov 00:23:07 00:27:20 81° 288° (WNW) 00:31:32 145.935-145.965
NANOSAT C BR1 23 Nov 00:25:14 00:29:27 86° 286° (WNW) 00:33:38 145.865
FO-29 23 Nov 00:26:43 00:28:53 11° 330° (NNW) 00:31:04 435.910
POLYITAN 1 23 Nov 00:38:59 00:43:08 58° 289° (WNW) 00:47:14 437.675
Oscar 19 23 Nov 00:42:23 00:46:33 24° 92° (E) 00:50:43 437.125/150
nSIGHT-1 23 Nov 00:50:38 00:53:47 55° 198° (SSW) 00:56:55 .
SO-50 23 Nov 00:52:40 00:55:57 19° 347° (NNW) 00:59:16 436.795
RS-15 23 Nov 00:53:28 01:05:24 55° 25° (NNE) 01:16:44 29.354- 29.394
PCSat 23 Nov 00:55:50 01:01:15 75° 310° (NW) 01:06:43 145.827
DX 1 23 Nov 00:57:46 01:02:07 64° 257° (WSW) 01:06:31 434.975-435.025
BUGSAT 1 23 Nov 00:59:46 01:03:44 52° 101° (E) 01:07:39 437.445
AIST 2D 23 Nov 00:59:51 01:01:12 12° 302° (WNW) 01:02:33 435.315
QB50P2 23 Nov 01:02:44 01:06:31 32° 295° (WNW) 01:10:16 145.880/145.840
SPROUT 23 Nov 01:05:42 01:07:18 12° 274° (W) 01:08:55 437.525
BEESAT 3 23 Nov 01:18:03 01:18:55 11° 110° (ESE) 01:19:46 437.485
Gurwin Techsat 1B 23 Nov 01:20:34 01:25:29 36° 96° (E) 01:30:22 435.225
BEESAT 23 Nov 01:33:40 01:38:03 37° 64° (ENE) 01:42:26 436.000
UKube-1 23 Nov 01:36:36 01:40:42 41° 261° (W) 01:44:50 .
ISS 23 Nov 01:40:10 01:43:13 36° 206° (SSW) 01:46:14 437.550
MOZHAYETS 4 23 Nov 01:40:47 01:45:10 49° 69° (ENE) 01:49:34
ITUPSAT 1 23 Nov 01:44:21 01:48:53 45° 66° (ENE) 01:53:26 437.325
DUCHIFAT 1 23 Nov 01:50:15 01:53:06 18° 302° (WNW) 01:55:57 145.980
50 SAT 23 Nov 01:57:48 01:58:36 11° 271° (W) 01:59:25 437.505
CUBESAT XI-V 23 Nov 01:57:52 02:01:25 22° 59° (ENE) 02:04:59 437.345
EO-79 23 Nov 02:00:30 02:02:25 13° 306° (NW) 02:04:21 145.935-145.965
M-CUBED/EXP-1 PRIME 23 Nov 02:00:40 02:03:47 18° 96° (E) 02:06:56 437.505
NANOSAT C BR1 23 Nov 02:02:27 02:04:31 14° 305° (NW) 02:06:35 145.865
Oscar 19 23 Nov 02:21:11 02:26:16 61° 291° (WNW) 02:31:21 437.125/150
nSIGHT-1 23 Nov 02:27:25 02:29:32 17° 217° (SW) 02:31:39 .
BEESAT 2 23 Nov 02:31:33 02:34:16 18° 114° (ESE) 02:37:00 435.950
SO-50 23 Nov 02:34:41 02:37:58 19° 12° (NNE) 02:41:17 436.795
BUGSAT 1 23 Nov 02:35:46 02:38:47 20° 300° (WNW) 02:41:47 437.445
ITAMSAT 1 23 Nov 02:38:59 02:42:33 18° 89° (E) 02:46:06 435.822/435.867
PCSat 23 Nov 02:41:05 02:45:33 25° 334° (NNW) 02:50:01 145.827
AO-85 23 Nov 02:50:16 02:50:43 10° 109° (ESE) 02:51:10 145.980
BEESAT 3 23 Nov 02:51:42 02:55:41 70° 130° (SE) 02:59:42 437.485
Gurwin Techsat 1B 23 Nov 03:00:31 03:05:31 42° 296° (WNW) 03:10:30 435.225
RS-15 23 Nov 03:06:48 03:18:46 76° 235° (SW) 03:30:04 29.354- 29.394
BEESAT 23 Nov 03:11:29 03:15:52 35° 264° (W) 03:20:14 436.000
AO-7 23 Nov 03:12:28 03:20:29 47° 100° (E) 03:28:28 .
MOZHAYETS 4 23 Nov 03:18:50 03:22:34 24° 268° (W) 03:26:19
KKS-1 23 Nov 03:20:14 03:24:15 33° 64° (ENE) 03:28:17 437.445
ITUPSAT 1 23 Nov 03:22:43 03:26:52 29° 265° (W) 03:31:03 437.325
CUBESAT XI-V 23 Nov 03:33:52 03:38:25 61° 259° (W) 03:43:02 437.345
M-CUBED/EXP-1 PRIME 23 Nov 03:34:03 03:38:33 75° 294° (WNW) 03:43:12 437.505
STARS 23 Nov 03:39:52 03:43:24 24° 60° (ENE) 03:46:58 437.465
YUBILEINY 23 Nov 04:00:17 04:07:24 29° 79° (ENE) 04:14:34 435.215
Oscar 19 23 Nov 04:02:14 04:04:38 13° 311° (NW) 04:07:02 437.125/150
BEESAT 2 23 Nov 04:07:29 04:11:31 75° 314° (NW) 04:15:37 435.950
DOVE 4 23 Nov 04:11:17 04:15:38 26° 90° (E) 04:19:48 437.250
SO-50 23 Nov 04:15:11 04:19:33 41° 35° (NE) 04:23:59 436.795
ITAMSAT 1 23 Nov 04:17:24 04:22:39 80° 288° (WNW) 04:27:51 435.822/435.867
AO-85 23 Nov 04:26:19 04:30:13 72° 130° (SE) 04:34:24 145.980
PCSat 23 Nov 04:27:24 04:30:50 17° 359° (N) 04:34:17 145.827
BEESAT 3 23 Nov 04:30:10 04:33:36 26° 330° (NNW) 04:37:01 437.485
Gurwin Techsat 1B 23 Nov 04:43:55 04:44:11 10° 317° (NW) 04:44:28 435.225
KKS-1 23 Nov 04:56:37 05:00:46 36° 263° (W) 05:04:57 437.445
XW-2C 23 Nov 05:01:11 05:03:06 13° 88° (E) 05:05:02 145.795 - 145.815
LilacSat-2 23 Nov 05:05:09 05:07:33 16° 90° (E) 05:09:57 437.200
AO-7 23 Nov 05:05:23 05:13:26 55° 302° (WNW) 05:21:29 .
M-CUBED/EXP-1 PRIME 23 Nov 05:09:40 05:12:17 15° 312° (NW) 05:14:58 437.505
XW-2F 23 Nov 05:09:49 05:12:07 15° 89° (E) 05:14:24 145.980 - 146.000
HO-68 23 Nov 05:12:00 05:13:52 11° 79° (ENE) 05:15:44 435.675
STRAND 1 23 Nov 05:13:26 05:17:45 28° 59° (ENE) 05:22:05 437.568
STARS 23 Nov 05:15:09 05:19:29 52° 259° (W) 05:23:50 437.465
RS-15 23 Nov 05:20:28 05:29:10 25° 260° (W) 05:37:35 29.354- 29.394
FO-29 23 Nov 05:28:49 05:34:00 22° 45° (NE) 05:39:27 435.910
KAITUO 1B 23 Nov 05:33:56 05:36:52 21° 92° (E) 05:39:47 145.475/437.950
BEESAT 2 23 Nov 05:46:43 05:49:52 21° 336° (NNW) 05:53:02 435.950
CUTE 1.7 + AOD 2 23 Nov 05:46:45 05:48:30 12° 86° (E) 05:50:17 437.475
DOVE 4 23 Nov 05:48:30 05:53:38 56° 291° (WNW) 05:58:32 437.250
XW-2D 23 Nov 05:53:19 05:57:00 45° 99° (E) 06:00:41 145.860 - 145.880
YUBILEINY 23 Nov 05:54:31 06:03:19 80° 282° (WNW) 06:12:14 435.215
SO-50 23 Nov 05:55:41 06:00:07 46° 236° (SW) 06:04:35 436.795
ITAMSAT 1 23 Nov 05:58:04 06:01:22 17° 309° (NW) 06:04:39 435.822/435.867
CUTE-I 23 Nov 06:02:44 06:07:54 44° 98° (E) 06:13:00 437.470
AO-85 23 Nov 06:07:34 06:11:03 27° 332° (NNW) 06:14:43 145.980
XW-2B 23 Nov 06:08:10 06:11:58 63° 102° (ESE) 06:15:45 145.730 - 145.750
BEESAT 3 23 Nov 06:10:15 06:12:23 14° 353° (N) 06:14:29 437.485
PCSat 23 Nov 06:11:46 06:16:09 24° 25° (NNE) 06:20:33 145.827
SEEDS 23 Nov 06:13:02 06:15:20 14° 87° (E) 06:17:38 437.485
NUDT-PHONESAT 23 Nov 06:14:44 06:18:22 52° 100° (E) 06:22:00 437.300
XW-2C 23 Nov 06:33:55 06:37:43 68° 287° (WNW) 06:41:32 145.795 - 145.815
LilacSat-2 23 Nov 06:38:23 06:42:10 58° 288° (WNW) 06:45:57 437.200
XW-2F 23 Nov 06:42:50 06:46:34 59° 288° (WNW) 06:50:19 145.980 - 146.000
STRAND 1 23 Nov 06:51:36 06:56:40 56° 259° (W) 07:01:46 437.568
HO-68 23 Nov 06:56:20 07:03:22 53° 100° (E) 07:10:20 435.675
AO-7 23 Nov 06:58:57 07:04:33 20° 326° (NW) 07:10:09 .
CUBEBUG 2 23 Nov 07:01:23 07:05:16 36° 96° (E) 07:09:06 437.445
XW-2A 23 Nov 07:07:02 07:09:35 20° 93° (E) 07:12:07 145.665 - 145.685
KAITUO 1B 23 Nov 07:07:27 07:11:00 40° 291° (WNW) 07:14:33 145.475/437.950
Oscar 11 23 Nov 07:10:21 07:10:52 10° 84° (E) 07:11:22 .
FO-29 23 Nov 07:10:48 07:17:42 69° 68° (ENE) 07:25:21 435.910
UNISAT 6 23 Nov 07:12:42 07:15:17 15° 56° (NE) 07:17:51 437.425
TIGRISAT 23 Nov 07:16:30 07:19:04 15° 56° (NE) 07:21:38 435.000
CUTE 1.7 + AOD 2 23 Nov 07:20:41 07:25:00 90° 199° (SSW) 07:29:17 437.475
BEESAT 2 23 Nov 07:26:52 07:29:00 14° 359° (N) 07:31:08 435.950
XW-2D 23 Nov 07:28:02 07:30:55 21° 298° (WNW) 07:33:48 145.860 - 145.880
DOVE 4 23 Nov 07:28:05 07:30:12 13° 312° (NW) 07:32:19 437.250
ZACube-1 23 Nov 07:39:54 07:43:33 29° 94° (E) 07:47:12 437.345
CUTE-I 23 Nov 07:43:00 07:47:52 36° 298° (WNW) 07:52:42 437.470
XW-2B 23 Nov 07:43:19 07:45:43 16° 300° (WNW) 07:48:08 145.730 - 145.750
SEEDS 23 Nov 07:47:18 07:51:33 78° 287° (WNW) 07:55:48 437.485
AAUSAT CUBESAT 2 23 Nov 07:47:57 07:52:04 52° 100° (E) 07:56:10 437.432
BEESAT 3 23 Nov 07:48:46 07:51:24 17° 17° (NNE) 07:54:01 437.485
NUDT-PHONESAT 23 Nov 07:49:21 07:51:53 18° 299° (WNW) 07:54:26 437.300
AO-85 23 Nov 07:50:12 07:52:49 16° 357° (N) 07:55:33 145.980
UWE-3 23 Nov 07:53:53 07:58:03 70° 102° (ESE) 08:02:11 435.000/436.395/437.385
YUBILEINY 23 Nov 07:54:51 08:01:44 25° 308° (NW) 08:08:42 435.215
PCSat 23 Nov 07:55:03 08:00:30 70° 49° (NE) 08:05:55 145.827
AO-73 23 Nov 08:29:23 08:33:33 79° 104° (ESE) 08:37:43 145.935
CUBEBUG 2 23 Nov 08:38:12 08:41:49 29° 296° (WNW) 08:45:24 437.445
XW-2A 23 Nov 08:39:18 08:42:23 34° 291° (WNW) 08:45:29 145.665 - 145.685
Max Valier Satellite 23 Nov 08:41:50 08:43:22 12° 88° (E) 08:44:53 145.860
Oscar 11 23 Nov 08:43:26 08:47:47 75° 104° (ESE) 08:52:07 .
HO-68 23 Nov 08:44:19 08:51:01 43° 302° (WNW) 08:57:41 435.675
UNISAT 6 23 Nov 08:46:52 08:51:24 89° 76° (ENE) 08:55:52 437.425
TIGRISAT 23 Nov 08:50:38 08:55:11 89° 55° (NE) 08:59:38 435.000
AO-7 23 Nov 08:52:19 08:54:12 11° 353° (N) 08:56:04 .
FO-29 23 Nov 08:57:13 09:03:20 32° 271° (W) 09:10:01 435.910
CUTE 1.7 + AOD 2 23 Nov 08:57:53 09:00:13 15° 304° (NW) 09:02:33 437.475
BEESAT 2 23 Nov 09:05:03 09:08:08 20° 23° (NNE) 09:11:13 435.950
PRISM 23 Nov 09:08:28 09:12:32 59° 71° (ENE) 09:16:39 437.425
ZACube-1 23 Nov 09:16:08 09:19:53 34° 294° (WNW) 09:23:40 437.345
AAUSAT CUBESAT 2 23 Nov 09:24:01 09:27:13 22° 299° (WNW) 09:30:26 437.432
SEEDS 23 Nov 09:24:41 09:26:32 13° 305° (NW) 09:28:23 437.485
BEESAT 3 23 Nov 09:25:59 09:29:51 45° 39° (NE) 09:33:39 437.485
AO-85 23 Nov 09:31:19 09:34:44 21° 21° (NNE) 09:38:20 145.980
UWE-3 23 Nov 09:31:23 09:34:03 17° 302° (WNW) 09:36:42 435.000/436.395/437.385
DELFI C3 23 Nov 09:34:24 09:38:23 60° 101° (E) 09:42:20 145.870
DUCHIFAT 1 23 Nov 09:37:01 09:39:27 15° 56° (ENE) 09:41:54 145.980
PCSat 23 Nov 09:39:03 09:43:28 26° 249° (WSW) 09:47:51 145.827
EO-79 23 Nov 09:46:01 09:49:16 22° 61° (ENE) 09:52:31 145.935-145.965
NANOSAT C BR1 23 Nov 09:47:58 09:51:06 21° 60° (ENE) 09:54:14 145.865
POLYITAN 1 23 Nov 10:01:27 10:05:05 29° 64° (ENE) 10:08:44 437.675
AIST 2D 23 Nov 10:04:03 10:07:29 67° 74° (ENE) 10:10:58 435.315
AO-73 23 Nov 10:06:50 10:09:16 15° 303° (WNW) 10:11:42 145.935
EO-88 23 Nov 10:07:20 10:10:59 70° 102° (ESE) 10:14:38 145.990 - 145.960
Max Valier Satellite 23 Nov 10:13:58 10:17:38 71° 286° (WNW) 10:21:18 145.860
ESTCUBE 1 23 Nov 10:15:52 10:18:06 13° 86° (E) 10:20:20 437.505/2401.250
Oscar 11 23 Nov 10:20:36 10:23:25 17° 302° (WNW) 10:26:13 .
BUGSAT 1 23 Nov 10:21:57 10:23:42 12° 54° (NE) 10:25:26 437.445
QB50P2 23 Nov 10:24:23 10:28:29 50° 69° (ENE) 10:32:35 145.880/145.840
LO-87 23 Nov 10:25:40 10:28:06 17° 91° (E) 10:30:30 145.935 - 145.965
UNISAT 6 23 Nov 10:26:35 10:28:44 13° 273° (W) 10:30:54 437.425
Oscar 19 23 Nov 10:28:52 10:31:11 13° 48° (NE) 10:33:29 437.125/150
TIGRISAT 23 Nov 10:30:20 10:32:29 13° 273° (W) 10:34:38 435.000
HO-68 23 Nov 10:33:32 10:37:01 14° 325° (NW) 10:40:28 435.675
AO-7 23 Nov 10:39:44 10:43:28 14° 21° (NNE) 10:47:13 .
BEESAT 2 23 Nov 10:42:29 10:46:33 70° 45° (NE) 10:50:33 435.950
PRISM 23 Nov 10:45:20 10:48:10 18° 270° (W) 10:51:02 437.425
BEESAT 3 23 Nov 11:03:47 11:07:15 29° 240° (WSW) 11:10:40 437.485
SPROUT 23 Nov 11:08:31 11:09:43 11° 85° (E) 11:10:54 437.525
Gurwin Techsat 1B 23 Nov 11:09:26 11:13:13 20° 54° (NE) 11:17:02 435.225
DELFI C3 23 Nov 11:09:58 11:12:44 18° 300° (WNW) 11:15:30 145.870
DUCHIFAT 1 23 Nov 11:10:20 11:14:33 83° 253° (WSW) 11:18:48 145.980
AO-85 23 Nov 11:11:27 11:15:56 62° 43° (NE) 11:20:46 145.980
EO-79 23 Nov 11:20:34 11:24:43 53° 259° (WSW) 11:28:54 145.935-145.965
NANOSAT C BR1 23 Nov 11:22:18 11:26:28 57° 259° (W) 11:30:38 145.865
POLYITAN 1 23 Nov 11:36:49 11:40:47 37° 263° (W) 11:44:44 437.675
AIST 2D 23 Nov 11:39:53 11:41:06 11° 272° (W) 11:42:19 435.315
EO-88 23 Nov 11:42:13 11:44:10 14° 301° (WNW) 11:46:07 145.990 - 145.960
ESTCUBE 1 23 Nov 11:51:00 11:55:34 90° 284° (WNW) 12:00:07 437.505/2401.250
BUGSAT 1 23 Nov 11:54:12 11:58:23 78° 73° (ENE) 12:02:32 437.445
LO-87 23 Nov 11:58:19 12:01:44 44° 290° (WNW) 12:05:06 145.935 - 145.965
O/OREOS (USA 219) 23 Nov 11:58:20 12:01:05 16° 99° (E) 12:03:49 437.305
QB50P2 23 Nov 12:01:15 12:04:32 21° 268° (W) 12:07:49 145.880/145.840
VELOX 1 23 Nov 12:02:10 12:05:48 24° 93° (E) 12:09:25 145.980
Oscar 19 23 Nov 12:04:30 12:09:32 60° 69° (ENE) 12:14:36 437.125/150
BEESAT 2 23 Nov 12:20:58 12:23:51 19° 245° (WSW) 12:26:41 435.950
AO-7 23 Nov 12:26:44 12:33:47 33° 47° (NE) 12:40:51 .
ITAMSAT 1 23 Nov 12:26:57 12:28:35 11° 45° (NE) 12:30:13 435.822/435.867
DX 1 23 Nov 12:41:16 12:43:53 15° 88° (E) 12:46:29 434.975-435.025
SPROUT 23 Nov 12:42:02 12:46:19 83° 104° (ESE) 12:50:34 437.525
Gurwin Techsat 1B 23 Nov 12:47:13 12:52:33 87° 254° (WSW) 12:57:56 435.225
DUCHIFAT 1 23 Nov 12:49:45 12:50:55 11° 274° (W) 12:52:04 145.980
M-CUBED/EXP-1 PRIME 23 Nov 12:50:53 12:54:28 44° 61° (ENE) 12:58:21 437.505
AO-85 23 Nov 12:52:11 12:56:09 28° 241° (WSW) 13:00:20 145.980
50 SAT 23 Nov 13:06:52 13:09:32 23° 95° (E) 13:12:09 437.505
UKube-1 23 Nov 13:18:00 13:21:23 22° 92° (E) 13:24:44 .
ESTCUBE 1 23 Nov 13:29:03 13:31:45 16° 305° (NW) 13:34:26 437.505/2401.250
BUGSAT 1 23 Nov 13:32:06 13:34:15 14° 272° (W) 13:36:25 437.445
O/OREOS (USA 219) 23 Nov 13:35:15 13:39:52 82° 299° (WNW) 13:44:30 437.305
VELOX 1 23 Nov 13:38:10 13:42:29 48° 292° (WNW) 13:46:45 145.980
Oscar 19 23 Nov 13:45:08 13:49:15 24° 269° (W) 13:53:23 437.125/150
DOVE 4 23 Nov 13:48:34 13:49:40 11° 46° (NE) 13:50:47 437.250
YUBILEINY 23 Nov 14:01:18 14:07:53 22° 50° (NE) 14:14:24 435.215
ITAMSAT 1 23 Nov 14:01:53 14:06:55 49° 66° (ENE) 14:11:57 435.822/435.867
DX 1 23 Nov 14:16:12 14:20:36 76° 288° (WNW) 14:24:58 434.975-435.025
AO-7 23 Nov 14:17:29 14:25:48 85° 249° (WSW) 14:34:12 .
SPROUT 23 Nov 14:19:08 14:21:38 16° 304° (NW) 14:24:09 437.525
NO-84 23 Nov 14:23:47 14:26:45 23° 136° (SE) 14:29:55 435.350 FM
M-CUBED/EXP-1 PRIME 23 Nov 14:26:10 14:29:07 22° 263° (W) 14:32:15 437.505
Gurwin Techsat 1B 23 Nov 14:30:11 14:33:18 16° 274° (W) 14:36:28 435.225
50 SAT 23 Nov 14:38:49 14:41:36 27° 294° (WNW) 14:44:22 437.505
UKube-1 23 Nov 14:53:28 14:57:41 51° 292° (WNW) 15:01:53 .
BEESAT 23 Nov 15:05:14 15:09:42 38° 98° (E) 15:14:07 436.000
MOZHAYETS 4 23 Nov 15:06:45 15:11:14 52° 100° (E) 15:15:42
ITUPSAT 1 23 Nov 15:16:28 15:21:05 47° 99° (E) 15:25:40 437.325
O/OREOS (USA 219) 23 Nov 15:16:49 15:20:02 18° 321° (NW) 15:23:14 437.305
DOVE 4 23 Nov 15:21:11 15:26:06 46° 67° (ENE) 15:31:09 437.250
CUBESAT XI-V 23 Nov 15:24:52 15:28:38 23° 91° (E) 15:32:23 437.345
ITAMSAT 1 23 Nov 15:41:59 15:46:35 30° 265° (W) 15:51:13 435.822/435.867
HO-68 23 Nov 15:45:55 15:50:57 21° 44° (NE) 15:56:00 435.675
XW-2C 23 Nov 15:47:46 15:50:03 16° 59° (ENE) 15:52:22 145.795 - 145.815
CUTE-I 23 Nov 15:51:45 15:56:01 25° 56° (ENE) 16:00:17 437.470
LilacSat-2 23 Nov 15:52:22 15:55:01 18° 61° (ENE) 15:57:39 437.200
DX 1 23 Nov 15:53:59 15:56:03 13° 307° (NW) 15:58:07 434.975-435.025
XW-2F 23 Nov 15:55:56 15:58:27 17° 61° (ENE) 16:00:58 145.980 - 146.000
NO-84 23 Nov 15:59:49 16:03:40 85° 154° (SSE) 16:07:48 435.350 FM
